GFSSGP_prec_cthk_159.txt.gz
RH
68 65 63 67 78 68 77 58 55 51 61 59 57 60 58 56 68 84 78 84 86 79 82 83 82 82 82 82 79 78 84 88 85 86 78 60 63 61 63 65 68 68 69 73 59 49 47 43 44
73 66 62 68 84 77 64 61 58 56 51 55 57 62 60 56 60 69 78 87 90 85 80 85 78 81 78 83 86 87 92 90 86 84 62 54 56 54 60 69 62 56 60 54 45 47 43 36 34
68 65 60 66 89 71 63 61 54 53 51 56 58 60 57 58 60 68 71 83 88 91 88 82 78 77 79 84 89 90 91 85 79 64 65 57 58 58 54 48 48 50 49 48 47 40 34 31 28
70 72 62 86 64 59 59 60 54 51 55 57 58 56 58 57 62 64 68 77 86 88 91 84 82 83 82 85 89 91 90 84 74 70 72 62 55 52 53 56 66 60 60 59 47 41 32 28 27
71 69 80 76 68 63 58 57 54 50 55 54 59 59 60 58 59 61 68 74 79 83 84 84 83 85 87 84 89 87 86 84 75 74 75 69 64 62 67 68 67 73 72 59 41 31 28 26 25
77 67 76 74 69 66 64 59 52 53 55 53 57 59 60 56 57 57 64 68 72 81 80 84 87 88 89 87 87 85 85 81 80 80 76 78 78 74 73 72 71 70 66 47 33 27 25 25 26
69 84 69 86 81 71 68 68 65 54 55 59 56 58 60 59 55 52 60 67 69 74 80 83 91 90 92 94 90 91 88 83 86 90 90 86 86 84 78 61 71 63 49 37 30 28 30 29 31
68 75 70 78 81 79 74 71 70 62 57 56 62 59 59 60 54 50 55 64 65 71 72 84 85 85 87 90 97 95 91 84 90 96 91 83 81 82 78 60 65 59 37 33 30 32 30 31 37
64 86 84 77 76 87 78 74 69 56 49 59 63 60 59 57 56 54 55 63 72 68 73 94 84 83 82 86 89 90 91 88 91 93 91 79 70 69 72 56 61 49 35 31 32 31 29 34 43
68 78 72 73 77 81 78 84 67 55 55 56 60 61 57 58 57 57 59 59 63 65 72 77 77 80 88 78 77 82 85 88 88 81 77 67 67 68 54 55 54 44 33 32 32 30 34 41 53
67 74 69 72 80 80 81 83 63 62 54 57 57 62 58 60 60 61 61 64 63 67 66 72 68 84 88 87 89 85 79 75 80 68 60 61 59 51 55 51 51 41 33 36 31 34 39 49 63
78 67 63 62 75 82 83 82 65 65 84 55 56 62 59 62 64 65 63 64 67 65 76 72 65 64 70 83 98 85 80 74 64 63 61 57 61 59 56 62 56 43 46 43 45 44 42 49 56
65 59 58 60 74 80 81 82 69 71 55 56 56 61 62 61 63 63 65 63 64 65 72 76 70 67 63 78 87 96 84 77 69 58 58 67 67 61 66 59 57 52 48 49 46 42 44 42 51
58 58 61 67 76 81 81 79 76 71 57 55 58 60 67 65 62 63 68 65 63 69 71 68 68 65 64 68 76 83 83 74 74 68 62 66 68 74 64 59 52 50 58 51 45 48 45 50 47
53 56 64 64 72 76 86 82 72 74 64 67 57 62 64 62 61 64 65 64 69 72 72 66 65 64 60 57 61 75 76 76 79 79 64 63 63 74 62 62 65 55 49 43 41 40 43 47 46
57 62 89 69 66 75 86 87 90 87 68 75 66 61 65 61 60 62 64 68 68 72 71 67 69 68 61 62 63 69 83 73 76 74 72 66 65 62 69 58 56 50 53 50 49 51 45 45 47
59 72 67 66 72 67 75 88 86 81 76 76 65 59 64 68 62 63 64 66 69 74 76 79 73 71 64 63 67 69 65 72 71 74 76 66 59 53 64 71 49 51 52 56 56 47 46 44 45
86 64 58 75 65 68 71 72 76 77 76 87 59 55 60 71 66 66 68 69 71 73 78 80 78 78 69 61 74 76 65 67 64 68 72 59 60 49 50 56 54 51 49 52 53 48 45 45 44
60 63 53 58 61 63 67 67 69 73 69 79 67 61 60 73 74 71 67 68 72 70 80 78 78 78 72 67 69 78 74 67 60 65 59 54 60 51 45 56 52 46 50 58 36 46 35 38 37
54 54 49 50 59 61 65 68 65 69 70 66 70 71 65 67 76 67 69 73 69 71 74 75 79 79 73 71 69 76 70 68 63 61 56 54 53 50 43 46 51 48 52 43 37 38 51 46 42
44 47 46 48 54 57 59 65 61 63 66 70 70 66 72 78 71 67 68 66 74 74 71 76 75 80 76 75 71 70 68 70 64 64 61 56 58 56 45 43 43 44 43 55 37 35 37 44 44
37 38 41 40 50 74 62 87 72 63 65 62 62 65 68 74 69 79 80 68 65 79 70 72 72 76 78 73 76 71 70 67 63 63 64 63 57 57 56 50 47 44 43 48 46 37 37 39 48
35 45 40 30 37 60 55 59 72 72 66 60 62 67 69 67 71 69 72 76 68 70 67 67 67 71 74 75 73 69 69 71 66 59 64 57 65 59 53 51 50 48 47 43 41 42 36 40 36
25 37 41 35 36 48 40 42 68 58 59 69 62 63 65 74 69 72 73 74 91 71 67 69 64 68 70 73 72 70 69 70 72 62 65 56 62 59 57 59 58 56 56 47 42 46 45 42 46
20 35 38 36 34 38 43 44 45 47 54 55 55 57 59 62 68 70 71 75 72 69 66 66 64 63 65 66 71 70 67 68 70 65 66 57 61 62 60 56 56 57 54 53 49 47 44 50 54
21 31 30 47 50 53 49 40 40 48 50 44 43 47 49 53 58 63 65 74 77 70 73 64 67 66 63 62 62 68 69 67 66 71 72 60 62 67 65 60 57 55 61 62 57 50 44 46 49
22 31 28 40 42 45 52 44 42 42 42 45 43 43 46 47 49 56 60 68 77 80 84 68 69 69 65 62 61 64 67 67 68 71 68 63 57 67 62 57 60 64 65 58 62 58 55 51 61
35 30 29 29 45 46 35 32 39 49 44 43 41 37 38 37 43 49 58 66 70 78 86 84 73 68 69 66 62 61 66 67 70 74 69 68 65 56 64 64 56 59 61 68 62 59 60 54 54
29 33 32 33 30 30 31 37 37 42 47 44 41 38 38 41 42 44 51 61 71 75 82 84 85 78 71 70 68 61 60 63 66 70 65 55 57 85 63 57 60 63 65 63 61 57 53 68 68
36 28 26 26 29 28 29 39 42 42 41 36 44 40 41 39 39 42 47 54 65 72 79 78 83 85 81 73 70 68 63 60 60 59 59 58 57 57 56 58 58 59 59 56 62 59 58 61 55

GFSSGP_prec_cthk_162.txt.gz
RH
60 56 66 77 94 76 79 55 50 52 54 59 60 59 63 68 74 84 78 76 70 72 71 73 71 75 77 75 71 75 77 80 82 83 69 67 70 75 71 68 72 77 77 60 52 43 39 44 36
63 62 77 79 90 89 61 55 54 58 53 55 56 57 52 56 60 75 73 79 76 67 76 81 75 75 77 75 76 79 81 81 82 70 63 67 66 64 68 68 65 71 66 49 48 42 38 32 26
67 62 66 85 89 90 59 60 49 45 52 56 52 61 53 62 62 66 72 80 81 75 73 76 73 76 75 79 82 83 86 82 74 67 59 62 64 68 59 48 51 51 49 50 38 30 29 27 27
67 72 68 83 89 82 56 54 49 46 54 50 53 51 56 52 59 64 67 74 83 83 78 78 75 75 78 77 84 84 80 75 67 67 62 63 60 50 46 52 52 54 54 42 34 28 26 26 28
69 71 96 87 81 63 59 52 58 57 52 58 54 56 59 57 53 59 70 70 76 80 82 81 81 79 80 82 86 85 80 73 72 71 66 62 58 56 61 62 63 66 50 38 27 25 25 24 30
75 84 84 90 92 59 57 54 50 54 52 59 62 54 57 62 59 59 66 67 74 77 81 80 83 85 85 86 88 85 81 78 75 79 75 71 67 64 64 72 69 66 40 28 24 23 24 27 36
78 89 86 92 94 86 69 60 55 52 50 56 57 56 57 58 61 62 63 62 66 76 81 84 85 85 87 88 85 86 80 81 78 78 79 77 71 68 68 70 62 52 33 25 24 27 29 35 43
65 84 92 76 84 95 87 68 64 52 51 54 61 55 56 56 57 59 57 57 61 71 81 87 85 86 90 90 90 86 83 83 85 82 81 80 77 72 57 64 54 36 28 25 28 29 35 41 50
70 90 90 80 77 82 83 72 66 62 47 62 56 58 54 57 52 61 57 61 65 71 89 84 83 82 86 89 91 93 92 91 91 85 80 79 78 68 53 63 42 30 26 28 26 31 38 45 53
70 83 94 71 72 72 80 82 71 53 52 52 58 57 53 56 57 55 64 58 61 71 77 79 83 80 84 85 87 85 88 91 89 84 74 71 68 60 55 57 35 27 27 28 31 37 45 52 66
71 82 67 55 66 74 81 81 71 59 50 55 54 55 54 56 59 59 59 61 61 61 66 98 79 80 83 83 86 89 86 85 80 66 72 73 60 49 55 51 31 26 29 28 34 39 46 65 66
59 58 62 54 59 72 76 85 80 74 56 69 52 56 54 57 59 59 65 61 61 72 66 66 76 89 92 82 83 85 82 77 67 58 65 67 54 49 48 47 32 34 36 34 40 44 44 53 81
78 60 56 55 63 72 72 78 89 74 77 65 52 56 57 57 57 61 65 66 66 62 72 70 67 74 90 84 79 73 71 65 54 53 56 53 59 63 61 47 43 39 37 48 45 43 41 42 51
69 60 55 59 60 64 68 78 81 65 68 59 52 55 58 55 56 61 67 66 61 66 68 79 66 65 71 81 76 77 73 77 58 62 63 81 63 59 59 54 42 45 41 46 41 37 43 47 49
51 62 70 68 59 62 67 77 69 89 66 65 49 54 61 63 60 59 63 63 64 73 72 68 65 66 64 60 76 78 66 75 70 59 58 54 60 52 58 51 43 53 45 44 35 37 43 49 47
58 68 77 74 61 58 67 80 78 73 63 69 68 53 75 60 54 54 61 63 66 71 70 64 69 65 58 55 65 73 78 70 76 64 52 69 59 70 80 92 53 54 43 36 38 41 48 48 49
66 82 78 80 74 60 62 78 75 80 79 80 77 54 64 53 57 54 58 60 67 76 67 63 74 65 58 54 60 78 80 75 76 66 54 57 49 75 79 66 45 57 44 48 46 44 47 42 46
80 77 73 87 79 69 63 67 66 79 88 75 72 67 63 59 63 55 58 58 62 67 72 72 80 71 64 57 58 61 66 67 68 70 80 52 58 68 96 64 46 53 85 63 38 46 47 42 42
58 58 65 88 73 68 66 66 67 68 72 74 73 63 51 63 68 76 63 58 62 63 71 77 74 75 67 62 60 75 60 58 59 61 70 62 53 47 47 54 47 47 42 50 43 45 45 37 35
54 52 58 64 53 59 69 73 68 67 67 67 59 59 59 57 64 69 63 64 61 59 64 68 70 74 70 66 62 68 66 59 55 68 59 53 49 45 44 60 52 46 41 42 34 46 67 41 39
50 50 53 48 43 50 69 87 76 75 72 71 64 65 69 69 74 73 82 70 66 64 75 62 66 72 68 69 68 67 69 72 56 53 53 51 45 45 39 39 41 38 35 40 33 30 40 38 37
32 38 43 39 35 53 53 73 88 89 74 67 59 60 71 70 73 72 71 70 64 59 85 64 62 71 71 70 67 65 65 66 63 63 53 57 48 47 46 35 36 34 33 48 71 28 37 42 61
27 38 43 42 33 36 49 56 73 72 66 63 60 59 65 69 62 63 65 71 82 65 70 72 57 65 73 69 71 69 63 62 67 57 62 57 53 50 46 42 41 40 37 38 36 38 31 33 53
21 33 37 38 32 29 33 50 68 64 67 90 74 56 55 60 65 68 66 74 80 82 82 58 61 61 69 68 69 73 63 64 63 57 58 56 52 52 46 43 39 41 38 44 38 35 37 28 26
12 23 28 36 35 33 50 53 61 50 55 63 64 83 68 66 67 62 65 66 66 67 62 53 65 64 62 64 68 68 68 65 75 65 61 64 49 52 52 46 43 42 41 45 42 41 38 39 37
14 19 26 38 56 58 52 48 58 48 45 61 62 52 55 50 54 63 59 63 61 65 72 87 66 59 55 58 61 63 66 65 66 64 58 68 60 55 59 55 53 46 42 54 45 40 42 38 39
18 17 23 31 45 61 64 50 43 48 42 46 50 46 39 46 55 53 52 55 62 67 72 75 66 53 56 55 57 60 62 64 62 60 59 63 58 59 73 57 49 46 47 46 52 52 46 44 44
27 23 24 28 35 58 64 60 52 51 48 50 50 42 46 39 36 43 56 56 52 61 68 85 92 64 56 58 55 57 58 62 62 63 59 64 62 62 67 67 59 63 50 54 54 47 49 55 51
24 33 28 28 31 41 46 60 48 44 46 47 43 43 35 36 34 37 41 49 51 50 62 82 86 87 63 57 61 57 53 55 59 63 64 64 62 63 64 58 77 69 59 51 55 51 50 53 58
23 27 29 28 31 31 30 43 43 43 46 45 44 40 36 37 40 37 37 41 51 51 53 65 75 73 74 71 64 65 62 56 54 58 70 67 66 60 49 52 67 64 61 52 64 59 56 56 50

GFSSGP_prec_cthk_165.txt.gz
RH
62 68 74 68 80 79 72 72 69 60 62 60 58 64 71 72 72 80 73 73 72 72 76 75 70 70 71 71 72 78 79 80 78 75 71 72 75 79 72 69 71 69 62 56 43 37 39 34 29
63 70 80 77 87 87 77 56 58 70 61 55 54 53 57 67 67 71 70 71 69 72 73 74 74 75 74 72 76 79 79 80 72 70 69 70 74 73 71 73 75 67 53 46 36 35 27 26 31
69 72 72 79 93 83 64 61 57 66 57 46 48 51 54 57 60 64 69 74 69 69 74 77 76 75 74 74 80 80 76 75 68 68 66 65 69 74 61 63 64 55 47 38 30 28 26 27 35
74 77 77 84 88 75 70 55 51 53 57 61 49 53 55 56 57 60 65 74 74 74 76 76 76 76 76 77 77 80 78 75 72 62 62 66 66 50 46 48 47 50 36 28 27 26 25 34 42
73 82 87 91 93 84 73 64 65 65 53 61 49 57 55 54 56 60 65 71 80 82 77 76 76 72 74 75 76 76 74 70 66 60 60 58 54 51 56 59 57 44 31 25 25 25 28 38 47
76 79 96 92 96 85 72 64 67 56 53 61 53 55 59 58 59 62 65 69 74 73 78 79 78 75 74 75 77 77 70 71 68 66 60 57 54 59 61 65 58 36 24 23 25 26 33 45 58
90 82 90 96 83 92 72 62 60 56 51 57 51 55 66 62 58 56 60 64 68 71 71 75 78 78 77 77 76 76 70 74 74 71 68 64 61 63 68 65 50 28 23 22 26 31 38 52 66
94 83 86 92 92 89 80 77 67 65 56 52 56 54 64 62 61 55 56 58 68 74 78 77 77 77 79 79 78 78 76 75 74 74 73 67 64 66 67 60 39 23 22 26 31 35 46 58 69
90 80 83 85 84 84 83 81 69 64 54 64 59 60 53 65 57 54 53 57 67 67 75 78 80 80 80 80 79 76 77 79 78 78 73 74 71 63 64 51 30 24 25 27 33 40 52 62 70
82 83 84 68 72 80 87 81 77 73 54 56 54 57 56 62 65 52 54 56 64 66 70 77 76 77 76 79 79 76 78 84 82 77 76 74 72 60 61 38 27 25 27 31 38 46 59 70 66
62 71 72 65 64 79 80 79 77 80 55 55 52 57 53 60 56 61 53 53 57 60 77 74 70 77 76 75 75 77 80 82 80 79 77 72 61 59 54 30 25 26 31 35 45 55 66 67 68
67 73 66 59 60 72 74 77 83 74 65 67 54 55 53 59 58 61 58 55 57 61 57 61 69 81 76 74 74 78 79 78 75 71 66 60 53 57 49 28 27 30 33 38 41 50 64 68 78
67 68 64 58 69 74 73 76 78 87 78 82 54 55 53 57 58 66 69 61 60 60 64 58 68 73 71 75 72 72 70 66 61 75 65 60 55 54 49 32 35 37 39 43 42 44 56 68 73
66 68 68 63 70 79 74 82 80 80 82 74 58 53 57 63 59 66 70 65 63 61 60 60 63 66 65 63 63 65 61 52 56 65 72 60 56 56 53 42 41 42 42 47 45 48 58 65 66
71 53 60 76 74 69 74 87 82 76 76 70 58 49 56 50 57 66 68 67 64 60 62 58 56 60 62 71 74 66 56 50 57 71 66 82 72 66 49 42 40 41 46 42 43 55 57 59 63
88 58 68 80 85 71 71 85 82 77 80 73 59 52 67 63 64 59 59 62 60 64 72 60 54 56 57 67 67 63 66 59 60 65 75 74 69 61 61 41 46 47 50 44 48 53 60 55 58
72 74 72 79 75 72 69 78 75 73 78 66 74 60 74 66 63 52 56 54 57 60 62 57 58 54 50 53 70 79 67 67 69 67 65 78 77 65 53 39 51 56 43 40 47 44 53 48 52
67 67 60 69 74 69 64 67 67 69 73 69 80 76 58 60 56 57 55 55 56 64 72 66 66 63 52 54 57 71 69 72 80 67 62 59 63 75 66 61 49 68 44 38 43 38 42 44 49
58 62 57 64 63 65 76 69 68 70 74 79 81 74 59 59 62 59 60 61 62 66 66 67 72 76 62 58 59 64 61 67 70 68 73 59 55 64 57 58 64 62 78 62 40 46 40 41 43
48 61 62 64 68 76 70 83 84 74 77 79 82 73 66 58 62 72 69 64 61 61 66 69 70 72 69 60 57 62 65 62 58 70 72 64 54 49 63 52 62 58 58 45 45 48 34 39 39
43 51 54 53 64 87 79 81 78 71 69 78 79 75 76 66 60 68 72 68 64 61 61 65 62 67 74 65 63 60 67 60 60 61 68 63 54 47 43 48 51 43 34 39 51 32 65 47 42
31 40 50 52 59 61 64 83 74 69 68 68 65 70 71 82 76 74 76 82 75 60 64 63 60 61 69 67 69 62 63 67 64 57 55 55 48 41 35 39 38 36 34 35 43 32 44 46 46
22 32 42 41 44 39 51 62 58 67 66 58 59 55 66 73 67 68 74 76 79 85 71 76 66 62 70 68 70 63 60 64 62 60 60 52 52 50 45 40 35 34 32 35 47 50 34 42 39
15 26 30 37 38 40 43 54 71 73 64 57 55 49 48 60 65 70 74 71 74 83 86 78 63 61 65 68 74 70 60 59 62 59 58 57 59 53 50 47 41 40 39 38 37 36 39 36 36
14 19 27 30 38 54 55 60 67 61 60 52 43 46 48 57 63 70 65 63 65 73 86 70 57 64 59 66 75 72 68 62 57 58 57 53 58 53 52 50 46 42 43 44 42 38 32 34 32
13 13 21 34 56 57 51 76 72 56 58 54 40 34 47 60 55 51 67 61 61 67 74 67 56 59 60 58 65 67 69 67 56 56 55 60 58 53 58 59 53 51 50 45 45 44 37 37 40
16 16 14 24 46 52 54 58 48 60 63 55 51 43 45 53 60 57 60 55 58 68 70 70 68 70 69 62 57 59 61 68 64 61 56 58 60 61 53 56 57 54 45 44 46 55 46 44 45
16 19 21 23 42 53 57 57 57 55 64 58 57 51 47 43 56 52 55 54 58 66 63 67 71 66 68 63 58 56 55 58 63 61 58 57 58 61 54 56 61 57 51 44 44 53 51 54 53
17 24 30 30 31 49 64 59 47 59 74 63 61 54 43 37 35 39 44 51 57 58 56 52 67 73 73 79 68 63 55 54 54 59 59 58 58 62 62 58 65 65 53 59 49 51 52 51 54
25 21 27 38 34 37 42 56 47 48 60 58 58 51 48 40 32 31 39 46 47 54 53 48 55 68 76 85 89 66 59 51 48 50 58 61 61 60 60 61 65 54 62 50 52 52 55 52 54

GFSSGP_prec_cthk_168.txt.gz
RH
61 66 69 71 72 78 77 78 65 58 67 67 69 69 75 82 76 78 78 80 74 72 73 74 70 66 65 68 76 75 73 71 70 72 66 71 74 70 68 68 66 59 56 43 38 42 42 40 45
59 65 66 69 83 91 74 62 60 64 63 58 60 61 66 76 74 77 77 71 70 71 70 69 69 67 68 68 72 74 75 72 70 69 69 72 73 72 70 70 66 61 47 36 35 34 31 36 47
70 72 60 69 82 88 80 73 63 59 62 55 54 55 59 66 64 66 66 66 67 68 72 75 76 72 70 70 72 75 74 66 64 69 67 71 69 72 75 75 64 51 40 34 28 27 34 40 45
72 72 66 79 82 76 78 80 73 58 56 58 57 58 57 61 62 58 61 64 70 70 75 75 77 73 72 73 75 75 73 65 66 67 65 68 72 60 66 62 52 40 30 26 28 29 38 44 54
78 82 80 84 81 74 74 83 80 67 58 56 52 55 56 59 63 66 66 68 71 73 77 76 75 75 75 75 74 73 72 72 69 59 64 64 51 45 49 56 51 30 26 26 28 34 45 57 66
86 86 89 91 90 84 81 81 76 67 56 57 55 52 59 62 61 65 68 71 77 77 77 75 77 74 73 69 73 72 69 69 66 58 60 56 52 57 62 59 40 27 25 27 33 40 56 66 68
88 97 89 92 88 85 81 77 78 69 55 55 52 54 61 63 60 63 66 66 70 73 78 76 76 73 70 72 71 68 68 66 65 63 60 58 60 63 65 53 31 25 26 30 36 47 62 68 67
86 90 84 90 88 85 78 77 75 68 59 53 56 59 60 59 61 58 63 71 71 69 71 75 76 77 77 75 76 71 70 71 69 68 69 66 68 67 68 47 26 24 27 36 42 52 60 65 70
84 90 83 83 85 79 78 84 84 77 58 58 59 57 54 56 54 54 57 64 65 71 75 74 77 78 81 79 79 75 75 76 76 74 75 71 74 68 63 40 25 27 32 39 49 58 61 67 68
75 83 82 74 64 78 82 87 82 78 71 51 54 57 57 57 55 53 55 57 58 63 73 75 76 79 81 83 81 80 78 79 80 78 76 72 75 69 57 34 26 29 35 42 54 62 64 67 70
71 78 73 64 67 81 90 86 84 88 71 50 52 55 55 58 55 56 51 51 52 68 69 70 75 74 78 81 79 82 82 81 81 80 80 79 72 67 49 30 28 34 44 49 59 62 64 68 68
69 72 70 61 67 77 85 81 83 83 74 58 56 54 53 52 56 58 56 53 52 56 62 66 74 73 75 81 80 79 86 85 83 83 84 80 67 59 39 30 33 37 45 49 52 58 64 67 63
65 74 69 61 70 72 74 79 80 80 77 78 63 52 50 52 60 62 63 61 57 57 56 64 69 72 75 77 79 82 83 84 80 80 79 67 63 53 38 33 33 38 41 43 47 54 71 75 68
65 74 71 76 70 73 72 80 82 87 86 81 65 53 53 57 60 65 66 64 62 57 58 61 64 67 68 71 76 77 74 73 73 73 68 60 56 50 40 38 35 39 39 40 49 49 60 69 60
65 72 70 76 70 69 75 86 84 81 82 84 61 53 57 61 63 60 64 66 66 62 59 61 61 61 62 67 67 63 55 60 73 69 62 53 51 47 37 40 37 35 37 42 46 49 55 61 57
63 68 72 69 65 66 68 81 87 85 81 82 67 54 56 56 55 56 58 62 65 66 64 58 57 59 66 71 63 53 51 53 53 63 58 54 53 47 40 38 37 35 36 42 45 44 50 57 57
61 76 70 72 67 69 69 81 86 82 83 85 66 68 73 75 64 62 54 57 59 58 63 57 52 60 69 71 70 68 61 53 52 53 62 65 59 53 45 40 40 41 40 37 38 67 53 52 57
54 64 65 67 64 69 71 74 75 81 83 87 78 73 76 71 64 61 53 52 52 59 64 59 53 53 58 66 74 81 70 60 58 56 61 67 62 59 57 41 43 45 41 36 39 44 45 48 53
39 62 65 67 69 72 74 72 73 75 79 86 83 80 76 68 67 61 58 55 56 60 65 65 62 57 52 56 61 74 73 70 75 58 53 56 64 72 61 48 48 61 45 39 43 42 46 46 48
51 56 61 68 70 78 80 77 67 67 66 75 82 87 75 64 59 64 63 63 58 57 60 64 67 67 63 55 56 62 64 62 64 62 66 61 50 56 64 59 58 63 49 39 41 47 40 35 37
42 52 56 65 72 70 72 69 64 58 63 66 73 82 75 65 67 64 66 66 63 62 57 60 60 63 68 63 60 60 66 62 66 65 68 63 58 53 58 63 65 60 65 53 48 45 42 38 36
38 41 48 64 67 74 65 65 61 56 64 66 62 61 72 71 67 68 71 71 71 72 64 65 57 60 65 70 65 61 65 69 60 60 58 63 58 50 46 50 52 55 51 37 48 43 33 53 43
26 31 39 58 60 65 73 67 54 49 59 60 54 60 62 70 71 69 67 73 77 77 71 68 72 65 67 71 67 65 63 66 61 59 64 58 49 48 38 36 39 38 40 36 40 44 33 45 43
18 22 28 35 47 52 60 61 60 61 54 55 51 55 57 60 62 66 64 70 71 70 76 78 74 66 62 68 66 66 62 62 65 64 58 56 54 50 50 42 37 34 34 32 35 45 47 34 36
20 18 27 31 37 43 53 52 58 55 53 50 48 50 56 56 59 67 67 66 62 63 76 84 72 67 60 62 68 67 68 64 64 64 64 64 59 57 53 49 45 40 40 39 37 35 34 35 38
21 17 22 25 47 53 55 53 51 52 50 47 43 48 58 58 59 64 67 66 62 59 69 74 67 58 61 57 64 65 71 71 68 65 66 61 56 55 53 53 50 47 44 43 43 39 37 33 32
21 16 17 29 44 45 43 45 45 50 51 53 46 45 46 57 57 62 55 60 58 56 63 68 67 67 59 59 54 61 64 70 70 68 66 68 62 56 58 57 60 56 53 51 47 43 45 39 35
18 18 20 25 37 44 51 49 53 53 53 51 50 46 38 40 54 53 54 53 54 51 56 65 68 73 72 68 59 54 57 62 69 72 68 70 68 66 63 59 56 62 59 59 52 48 51 49 47
27 21 20 24 35 48 53 54 47 46 50 52 49 48 47 39 40 42 43 48 47 50 56 54 61 65 74 75 68 59 56 56 61 67 71 71 70 71 68 71 60 68 68 62 56 49 53 53 52
32 30 22 32 33 40 50 47 43 46 45 48 51 51 54 52 47 44 43 44 39 45 51 51 51 46 66 78 76 78 65 62 58 57 61 70 71 67 66 75 71 69 78 71 65 62 57 62 53

GFSSGP_prec_cthk_171.txt.gz
RH
64 72 73 74 73 76 75 68 60 65 64 64 64 66 76 81 76 79 79 83 82 80 79 80 75 70 73 79 82 80 76 75 75 78 76 74 71 69 69 66 62 58 45 42 43 42 40 46 51
63 69 72 74 81 81 72 65 64 63 62 59 60 62 63 75 79 79 76 77 77 78 75 75 74 69 69 76 79 77 78 76 79 72 76 79 74 73 73 67 63 51 41 36 36 35 41 50 53
70 73 65 69 83 87 84 79 68 65 63 58 57 57 56 63 69 67 71 68 69 70 70 69 68 70 71 73 76 79 80 74 75 75 75 77 77 74 71 67 58 41 33 34 35 35 41 45 54
75 75 66 76 82 73 77 78 70 67 62 58 55 58 55 56 59 56 59 63 71 70 72 79 81 76 72 74 78 79 76 68 71 75 74 73 74 75 73 60 48 37 32 28 32 41 46 54 63
77 81 81 83 84 79 69 76 76 71 68 61 54 55 56 57 56 56 55 63 72 72 75 78 78 75 74 76 80 85 74 69 72 72 71 74 68 66 60 50 37 27 28 30 36 48 63 65 69
77 81 84 86 84 79 75 83 82 70 67 60 55 52 57 58 61 61 58 63 72 73 75 76 79 77 79 80 80 79 77 76 73 72 70 63 50 49 58 48 29 25 28 33 43 60 68 70 70
74 77 86 88 89 83 82 84 81 75 62 58 52 56 59 56 60 64 67 67 74 77 82 77 80 78 75 77 81 77 75 75 70 71 64 58 57 59 57 46 28 24 29 37 53 66 67 71 69
73 78 82 86 88 92 87 84 81 76 64 60 58 59 59 55 56 58 65 70 72 76 80 76 77 76 75 74 76 71 72 71 71 70 67 63 65 64 55 38 24 23 32 41 57 65 73 78 72
70 82 79 75 81 84 83 80 82 80 72 61 66 56 50 50 49 55 66 70 75 73 78 80 84 82 83 83 82 78 76 74 75 76 72 72 71 66 52 36 23 27 36 47 57 67 74 75 73
68 78 80 67 66 76 85 84 85 82 66 59 56 56 52 48 47 52 58 63 73 79 81 81 82 84 87 89 85 79 81 83 78 76 76 76 71 64 49 35 25 30 40 51 60 65 72 73 73
63 72 73 65 67 74 85 91 86 83 75 55 54 56 53 50 50 51 53 56 65 71 75 80 81 86 89 92 90 82 85 84 79 78 74 75 74 62 49 35 28 35 45 54 60 64 72 68 70
69 73 69 60 65 74 84 85 85 84 81 59 56 53 52 51 51 54 51 52 66 69 72 76 77 79 85 89 88 88 84 83 83 83 79 77 73 59 46 37 36 43 50 56 60 62 62 62 68
61 63 61 61 64 70 72 74 80 77 82 72 64 54 51 54 55 59 59 56 56 59 62 70 78 80 82 87 87 89 86 83 85 85 84 77 72 57 46 37 34 41 47 53 54 60 71 69 62
57 67 66 70 66 65 70 75 83 82 79 77 72 50 53 55 54 59 61 62 59 58 58 67 71 76 80 81 84 85 89 87 86 86 83 80 67 54 42 34 32 39 43 47 54 59 67 64 55
59 68 67 70 73 71 69 79 89 84 86 83 77 51 57 54 59 63 63 63 64 60 58 61 63 68 71 76 82 84 83 88 85 83 76 73 60 52 39 36 31 32 38 44 49 55 61 58 53
62 65 69 71 74 75 74 77 85 89 87 82 77 58 58 59 57 63 65 65 66 63 60 58 61 62 67 68 67 68 70 74 76 77 71 63 57 55 40 36 34 32 37 42 43 46 50 54 54
58 68 70 71 74 74 71 76 84 86 87 86 79 61 60 61 58 59 59 63 66 64 62 59 59 61 65 63 57 54 52 60 76 67 62 59 59 48 45 39 36 34 36 41 40 41 45 47 48
53 64 63 68 71 69 73 71 73 72 77 81 76 71 67 68 62 56 57 56 63 61 62 56 55 60 65 68 66 62 54 53 57 59 61 68 64 57 51 39 37 36 37 40 37 40 55 44 49
40 50 56 68 67 74 75 71 72 70 75 79 80 78 67 68 64 58 58 58 56 63 67 62 52 54 61 61 67 76 71 55 57 59 66 71 72 61 61 47 41 39 37 38 36 35 37 40 42
47 55 61 68 70 71 70 67 67 67 68 70 78 77 74 62 66 62 62 60 59 58 64 68 67 64 55 59 61 73 72 72 74 63 59 65 69 70 64 64 52 46 44 45 34 35 37 37 38
39 48 56 62 67 71 64 60 62 65 66 68 71 74 77 62 58 60 58 59 58 59 59 64 70 70 68 59 59 60 66 68 71 64 65 63 56 61 67 66 56 54 56 51 37 38 41 34 34
30 36 42 56 68 72 62 66 59 60 63 64 62 70 72 67 64 59 62 57 61 61 66 70 68 66 67 71 63 58 59 64 60 66 67 67 63 57 60 73 63 64 63 62 56 52 40 42 44
25 30 36 49 64 71 72 70 55 57 61 62 60 62 64 70 69 66 62 63 68 74 70 68 70 74 70 71 70 65 56 62 66 58 55 55 59 52 55 63 63 60 60 55 48 46 42 35 42
19 23 33 44 56 52 46 65 53 55 51 54 59 60 59 62 66 67 61 70 73 73 73 73 74 74 72 71 72 69 62 59 62 59 58 59 56 49 45 38 41 43 43 45 35 35 42 38 33
20 23 25 26 41 49 45 56 44 44 53 53 53 52 54 56 63 63 63 70 69 66 74 84 79 77 69 68 67 68 64 60 58 60 59 57 51 45 45 45 41 38 34 34 33 33 37 39 36
23 22 23 23 33 48 51 46 39 38 48 48 44 43 51 55 58 59 62 64 63 64 66 82 75 72 70 66 65 66 66 65 59 58 62 62 58 55 50 48 48 49 44 42 41 39 37 36 33
24 22 18 31 42 47 40 36 36 37 48 48 47 42 41 54 55 58 59 62 65 62 62 77 76 73 69 65 67 64 65 67 66 61 58 59 62 54 52 52 53 51 49 47 45 51 47 44 40
20 21 20 22 28 34 37 44 41 37 43 49 53 46 39 50 58 55 55 52 55 56 60 68 72 74 76 73 66 62 59 60 64 67 61 59 61 62 58 55 54 56 58 54 54 54 50 48 51
26 23 22 22 27 29 39 44 37 37 43 47 50 41 33 33 44 48 46 45 48 51 55 62 65 70 71 77 75 67 61 58 57 62 66 61 62 63 62 58 57 56 56 58 54 59 53 50 54
30 29 30 27 24 37 45 41 34 40 45 51 48 48 44 42 38 38 37 40 43 45 47 57 55 53 58 69 78 76 67 62 57 54 59 66 67 65 69 67 65 64 58 61 65 69 63 52 58